Weather History for PABR - February, 2013

Change the Weather History Date:

Saturday, February 2, 2013

  Actual Average Record
Temperature  
Mean Temperature -16 °F -14 °F  
Max Temperature -9 °F -8 °F 26 °F (1994)
Min Temperature -23 °F -20 °F -50 °F (1995)
Degree Days  
Heating Degree Days 81 79  
Month to date heating degree days 166 158  
Since 1 July heating degree days 9818 10794  
Cooling Degree Days 0    
Month to date cooling degree days 0  
Year to date cooling degree days 0  
Moisture  
Dew Point -21 °F    
Average Humidity 0    
Maximum Humidity 0    
Minimum Humidity 0    
Precipitation  
Precipitation 0.00 in 0.01 in 0.09 in (1929)
Month to date precipitation T 0.01  
Year to date precipitation 0.06 0.14  
Snow  
Snow 0.00 in 0.10 in 2.50 in (1929)
Month to date snowfall T 0.2  
Since 1 July snowfall 41.3 26.6  
Snow Depth 6.00 in    
Sea Level Pressure  
Sea Level Pressure 30.24 in    
Wind  
Wind Speed 19 mph (NE)    
Max Wind Speed 28 mph    
Max Gust Speed 38 mph    
Visibility 4 miles    
Events Snow    
T = Trace of Precipitation, MM = Missing Value Source: NWS Daily Summary

Daily Weather History Graph

Daily Weather History Graph

Search for Another Location

Airport or City:

Trip Planner

Search our weather history database for the weather conditions in past years. The results will help you decide how hot, cold, wet, or windy it might be!

Date:

Astronomy

Feb. 02, 2013 Rise Set
Actual Time 11:25 AM AKST 3:57 PM AKST
Civil Twilight 9:51 AM AKST 5:31 PM AKST
Nautical Twilight 8:28 AM AKST 6:55 PM AKST
Astronomical Twilight 7:12 AM AKST 8:11 PM AKST
Moon 3:26 AM AKST (2/2) 9:21 AM AKST (2/2)
Length of Visible Light 7h 40m
Length of Day
4h 31m
Waning Gibbous, 58% of the Moon is Illuminated
Feb 2
Waning Gibbous
Feb 3
Last Quarter
Feb 9
New
Feb 17
First Quarter
Feb 25
Full

Hourly Weather History & Observations

Time (AKST) Temp. Windchill Dew Point Humidity Pressure Visibility Wind Dir Wind Speed Gust Speed Precip Events Conditions
12:38 AM -22.0 °F -45.7 °F -27.4 °F 76% 30.44 in 3.0 mi NE 12.7 mph - N/A   Haze
12:53 AM -22.0 °F -45.7 °F -27.0 °F 77% 30.46 in 3.0 mi NE 12.7 mph 19.6 mph N/A   Haze
1:53 AM -20.9 °F -45.3 °F -27.0 °F 73% 30.44 in 6.0 mi NE 13.8 mph - N/A   Haze
2:53 AM -20.9 °F -45.3 °F -27.0 °F 73% 30.42 in 5.0 mi ENE 13.8 mph - N/A   Haze
3:27 AM -20.2 °F -44.4 °F -27.4 °F 69% 30.39 in 3.0 mi ENE 13.8 mph - N/A   Haze
3:53 AM -20.9 °F -43.3 °F -27.0 °F 73% 30.40 in 5.0 mi ENE 11.5 mph - N/A   Haze
4:53 AM -20.9 °F -43.3 °F -26.0 °F 77% 30.39 in 5.0 mi ENE 11.5 mph - N/A   Haze
5:53 AM -20.0 °F -45.0 °F -25.1 °F 78% 30.35 in 8.0 mi NE 15.0 mph - N/A   Clear
6:53 AM -18.9 °F -42.8 °F -25.1 °F 74% 30.33 in 8.0 mi NE 13.8 mph - N/A   Clear
7:53 AM -18.9 °F -44.4 °F -24.0 °F 78% 30.31 in 10.0 mi NE 16.1 mph - N/A   Clear
8:53 AM -18.0 °F -43.3 °F -24.0 °F 74% 30.30 in 10.0 mi NE 16.1 mph - N/A   Clear
9:53 AM -17.0 °F -44.6 °F -22.0 °F 78% 30.28 in 7.0 mi ENE 20.7 mph 31.1 mph N/A   Scattered Clouds
10:53 AM -16.1 °F -40.7 °F -22.0 °F 74% 30.27 in 6.0 mi NE 16.1 mph - N/A   Partly Cloudy
11:53 AM -16.1 °F -42.8 °F -20.9 °F 79% 30.25 in 6.0 mi NE 19.6 mph - N/A   Scattered Clouds
12:53 PM -15.0 °F -43.2 °F -20.0 °F 78% 30.23 in 4.0 mi ENE 23.0 mph 32.2 mph N/A   Scattered Clouds
1:23 PM -14.8 °F -41.8 °F -20.2 °F 77% 30.21 in 2.0 mi ENE 20.7 mph 32.2 mph N/A   Scattered Clouds
1:31 PM -14.8 °F -42.4 °F -20.2 °F 77% 30.21 in 1.8 mi ENE 21.9 mph 31.1 mph N/A   Scattered Clouds
1:38 PM -14.8 °F -41.8 °F -20.2 °F 77% 30.21 in 2.0 mi ENE 20.7 mph 32.2 mph N/A   Scattered Clouds
1:46 PM -14.8 °F -41.8 °F -20.2 °F 77% 30.21 in 1.5 mi ENE 20.7 mph 32.2 mph N/A   Scattered Clouds
1:53 PM -14.1 °F -40.8 °F -20.0 °F 75% 30.21 in 1.5 mi ENE 20.7 mph 31.1 mph N/A   Scattered Clouds
2:53 PM -13.0 °F -40.6 °F -18.9 °F 75% 30.18 in 1.2 mi ENE 23.0 mph 32.2 mph N/A Snow Blowing Snow
3:28 PM -13.0 °F -41.6 °F -18.4 °F 77% 30.16 in 0.8 mi ENE 25.3 mph 33.4 mph N/A Snow Blowing Snow
3:53 PM -13.0 °F -41.6 °F -18.0 °F 78% 30.16 in 0.8 mi ENE 25.3 mph 33.4 mph N/A Snow Blowing Snow
4:53 PM -11.9 °F -37.4 °F -17.0 °F 78% 30.14 in 0.8 mi ENE 19.6 mph 32.2 mph N/A Snow Blowing Snow
5:22 PM -11.2 °F -36.4 °F -16.6 °F 77% 30.13 in 2.0 mi ENE 19.6 mph 31.1 mph N/A Snow Blowing Snow
5:53 PM -11.9 °F -39.6 °F -17.0 °F 78% 30.13 in 2.0 mi NE 24.2 mph 32.2 mph N/A Snow Blowing Snow
6:11 PM -11.2 °F -38.2 °F -16.6 °F 77% 30.12 in 1.0 mi NE 23.0 mph 32.2 mph N/A Snow Blowing Snow
6:53 PM -11.0 °F -38.4 °F -16.1 °F 78% 30.11 in 1.0 mi NE 24.2 mph 32.2 mph N/A Snow Blowing Snow
7:53 PM -9.9 °F -37.0 °F -16.1 °F 74% 30.10 in 1.0 mi NE 24.2 mph - N/A Snow Blowing Snow
8:53 PM -9.9 °F -36.5 °F -15.0 °F 78% 30.09 in 2.0 mi ENE 23.0 mph - N/A Snow Blowing Snow
9:53 PM -9.9 °F -37.5 °F -15.0 °F 78% 30.07 in 2.5 mi NE 25.3 mph 33.4 mph N/A Snow Blowing Snow
10:53 PM -9.0 °F -36.3 °F -14.1 °F 79% 30.07 in 3.0 mi NE 25.3 mph 33.4 mph N/A Snow Blowing Snow
11:53 PM -9.0 °F -35.3 °F -14.1 °F 79% 30.06 in 4.0 mi NE 23.0 mph - N/A Snow Blowing Snow